TimeMDT,TemperatureF,Dew PointF,Humidity,Sea Level PressureIn,VisibilityMPH,Wind Direction,Wind SpeedMPH,Gust SpeedMPH,PrecipitationIn,Events,Conditions,WindDirDegrees,DateUTC
12:15 AM,54.7,50.5,86,30.10,10.0,SSE,5.8,-,N/A,,Clear,160,2013-09-22 06:15:00
12:35 AM,54.1,50.5,88,30.09,10.0,SSE,5.8,-,N/A,,Clear,150,2013-09-22 06:35:00
12:55 AM,52.5,49.5,89,30.09,10.0,Calm,Calm,-,N/A,,Clear,0,2013-09-22 06:55:00
1:15 AM,52.0,49.6,92,30.09,10.0,Calm,Calm,-,N/A,,Clear,0,2013-09-22 07:15:00
1:35 AM,52.5,49.5,89,30.09,10.0,South,5.8,-,N/A,,Clear,170,2013-09-22 07:35:00
1:55 AM,52.9,50.0,90,30.10,10.0,SSE,4.6,-,N/A,,Clear,150,2013-09-22 07:55:00
2:15 AM,52.2,49.5,91,30.08,10.0,SE,8.1,-,N/A,,Clear,140,2013-09-22 08:15:00
2:35 AM,52.0,49.5,91,30.08,10.0,SE,5.8,-,N/A,,Clear,140,2013-09-22 08:35:00
2:55 AM,51.8,49.3,91,30.07,10.0,SSE,4.6,-,N/A,,Clear,150,2013-09-22 08:55:00
3:15 AM,50.9,48.7,92,30.07,10.0,SSE,5.8,-,N/A,,Clear,150,2013-09-22 09:15:00
3:35 AM,49.3,47.3,93,30.06,10.0,Calm,Calm,-,N/A,,Clear,0,2013-09-22 09:35:00
3:55 AM,49.5,47.5,93,30.05,10.0,Calm,Calm,-,N/A,,Clear,0,2013-09-22 09:55:00
4:15 AM,48.2,46.0,92,30.06,10.0,West,5.8,-,N/A,,Clear,270,2013-09-22 10:15:00
4:35 AM,47.8,46.2,94,30.05,10.0,NW,3.5,-,N/A,,Clear,320,2013-09-22 10:35:00
4:55 AM,46.4,44.8,94,30.05,4.0,Calm,Calm,-,N/A,,Clear,0,2013-09-22 10:55:00
5:15 AM,45.3,43.9,95,30.05,4.0,Calm,Calm,-,N/A,,Mostly Cloudy,0,2013-09-22 11:15:00
5:35 AM,45.5,44.1,95,30.05,0.2,Calm,Calm,-,N/A,Fog,Fog,0,2013-09-22 11:35:00
5:55 AM,44.4,43.0,95,30.05,0.2,Calm,Calm,-,N/A,Fog,Fog,0,2013-09-22 11:55:00
6:15 AM,44.6,43.2,95,30.05,0.2,Calm,Calm,-,N/A,Fog,Fog,0,2013-09-22 12:15:00
6:35 AM,44.6,43.3,95,30.05,0.2,Calm,Calm,-,N/A,Fog,Fog,0,2013-09-22 12:35:00
6:55 AM,44.6,43.5,96,30.06,0.2,Calm,Calm,-,N/A,Fog,Fog,0,2013-09-22 12:55:00
7:15 AM,44.4,43.2,95,30.06,0.2,Calm,Calm,-,N/A,Fog,Fog,0,2013-09-22 13:15:00
7:35 AM,45.0,43.9,96,30.06,0.8,Calm,Calm,-,N/A,,Overcast,0,2013-09-22 13:35:00
7:55 AM,46.9,45.9,96,30.06,3.0,Calm,Calm,-,N/A,,Mostly Cloudy,0,2013-09-22 13:55:00
8:15 AM,50.0,48.9,96,30.06,10.0,Calm,Calm,-,N/A,,Scattered Clouds,0,2013-09-22 14:15:00
8:35 AM,52.9,51.8,96,30.07,10.0,Calm,Calm,-,N/A,,Clear,0,2013-09-22 14:35:00
8:55 AM,55.4,51.8,88,30.06,10.0,South,3.5,-,N/A,,Clear,170,2013-09-22 14:55:00
9:15 AM,57.4,51.8,82,30.06,10.0,South,5.8,-,N/A,,Clear,170,2013-09-22 15:15:00
9:35 AM,59.0,51.3,75,30.06,10.0,SSW,8.1,-,N/A,,Clear,210,2013-09-22 15:35:00
9:55 AM,60.3,51.8,74,30.05,10.0,South,10.4,-,N/A,,Clear,190,2013-09-22 15:55:00
10:15 AM,63.3,52.0,66,30.05,10.0,SSW,12.7,-,N/A,,Clear,200,2013-09-22 16:15:00
10:35 AM,65.7,51.1,59,30.04,10.0,South,15.0,-,N/A,,Clear,190,2013-09-22 16:35:00
10:55 AM,67.5,49.6,53,30.02,10.0,South,15.0,20.7,N/A,,Clear,190,2013-09-22 16:55:00
11:15 AM,68.9,48.6,48,30.02,10.0,South,13.8,17.3,N/A,,Clear,180,2013-09-22 17:15:00
11:35 AM,69.1,48.0,47,30.02,10.0,SSW,13.8,17.3,N/A,,Clear,200,2013-09-22 17:35:00
11:55 AM,70.5,47.7,44,30.00,10.0,South,10.4,18.4,N/A,,Clear,170,2013-09-22 17:55:00
12:15 PM,71.2,45.9,40,29.99,10.0,SSW,13.8,-,N/A,,Clear,200,2013-09-22 18:15:00
12:35 PM,71.8,45.1,38,29.98,10.0,South,13.8,19.6,N/A,,Clear,170,2013-09-22 18:35:00
12:55 PM,72.5,45.3,38,29.96,10.0,South,13.8,18.4,N/A,,Clear,190,2013-09-22 18:55:00
1:15 PM,73.6,44.6,35,29.95,10.0,SSW,12.7,17.3,N/A,,Clear,210,2013-09-22 19:15:00
1:35 PM,74.5,43.5,33,29.93,10.0,South,13.8,18.4,N/A,,Clear,180,2013-09-22 19:35:00
1:55 PM,75.4,44.4,33,29.92,10.0,South,13.8,19.6,N/A,,Clear,190,2013-09-22 19:55:00
2:15 PM,75.2,44.1,33,29.91,10.0,South,17.3,24.2,N/A,,Clear,170,2013-09-22 20:15:00
2:35 PM,75.4,43.9,32,29.90,10.0,South,19.6,24.2,N/A,,Clear,190,2013-09-22 20:35:00
2:55 PM,75.6,44.1,32,29.89,10.0,South,23.0,31.1,N/A,,Clear,190,2013-09-22 20:55:00
3:15 PM,75.7,44.8,33,29.88,10.0,South,21.9,26.5,N/A,,Clear,180,2013-09-22 21:15:00
3:35 PM,75.6,43.9,32,29.87,10.0,South,24.2,32.2,N/A,,Clear,190,2013-09-22 21:35:00
3:55 PM,74.8,43.9,33,29.87,10.0,South,23.0,31.1,N/A,,Clear,190,2013-09-22 21:55:00
4:15 PM,73.9,44.2,35,29.85,10.0,South,25.3,33.4,N/A,Thunderstorm,Clear,180,2013-09-22 22:15:00
4:35 PM,73.0,43.5,35,29.84,10.0,South,26.5,31.1,N/A,,Clear,170,2013-09-22 22:35:00
4:55 PM,72.9,42.8,34,29.84,10.0,South,25.3,31.1,N/A,,Clear,190,2013-09-22 22:55:00
5:15 PM,73.0,42.6,33,29.84,10.0,South,26.5,31.1,N/A,,Clear,190,2013-09-22 23:15:00
5:35 PM,70.9,42.4,36,29.84,10.0,South,20.7,31.1,N/A,,Clear,190,2013-09-22 23:35:00
5:55 PM,70.2,43.5,38,29.84,10.0,South,18.4,26.5,N/A,,Clear,190,2013-09-22 23:55:00
6:15 PM,68.9,44.2,41,29.86,10.0,South,23.0,27.6,N/A,,Mostly Cloudy,190,2013-09-23 00:15:00
6:35 PM,68.4,45.1,43,29.86,10.0,South,18.4,27.6,N/A,,Overcast,190,2013-09-23 00:35:00
6:55 PM,59.5,51.3,74,29.87,7.0,SW,8.1,18.4,0.01,Rain,Rain,220,2013-09-23 00:55:00
7:15 PM,59.5,52.2,77,29.86,10.0,South,8.1,-,N/A,Thunderstorm,Overcast,190,2013-09-23 01:15:00
7:35 PM,60.4,52.9,76,29.84,10.0,South,10.4,-,N/A,Rain,Light Rain,170,2013-09-23 01:35:00
7:55 PM,60.4,52.7,76,29.84,10.0,South,9.2,-,N/A,Rain-Thunderstorm,Light Thunderstorms and Rain,170,2013-09-23 01:55:00
8:15 PM,60.3,52.7,76,29.86,10.0,SSW,6.9,-,N/A,,Mostly Cloudy,210,2013-09-23 02:15:00
8:35 PM,59.0,53.1,81,29.84,10.0,SSE,4.6,-,N/A,,Scattered Clouds,150,2013-09-23 02:35:00
8:55 PM,58.6,52.9,81,29.82,10.0,SSE,10.4,-,N/A,Thunderstorm,Scattered Clouds,160,2013-09-23 02:55:00
9:15 PM,59.9,52.7,77,29.86,10.0,SW,8.1,-,N/A,Rain-Thunderstorm,Light Thunderstorms and Rain,220,2013-09-23 03:15:00
9:35 PM,53.1,50.7,92,29.90,5.0,WSW,9.2,16.1,0.14,Rain-Thunderstorm,Thunderstorms and Rain,250,2013-09-23 03:35:00
9:55 PM,55.2,51.1,86,29.91,10.0,West,8.1,-,0.15,Rain,Rain,270,2013-09-23 03:55:00
10:15 PM,55.2,51.4,87,29.90,10.0,WSW,5.8,-,N/A,Rain,Light Rain,240,2013-09-23 04:15:00
10:35 PM,55.4,51.1,85,29.91,10.0,SW,6.9,-,0.01,Rain,Light Rain,220,2013-09-23 04:35:00
10:55 PM,55.2,50.2,83,29.91,10.0,WSW,5.8,-,0.01,Rain,Rain,240,2013-09-23 04:55:00
11:15 PM,55.9,49.8,80,29.92,10.0,WSW,9.2,-,N/A,Rain,Light Rain,240,2013-09-23 05:15:00
11:35 PM,56.3,46.8,70,29.93,10.0,WSW,11.5,19.6,N/A,,Overcast,240,2013-09-23 05:35:00
11:55 PM,54.9,42.6,63,29.93,10.0,West,11.5,17.3,N/A,,Scattered Clouds,270,2013-09-23 05:55:00